sat.trackr.live / text

‹ back to catalog

STARLINK-34910

NORAD 66269 · 2025-247E

PAYLOAD ACTIVE UNKNOWN

§ Identity

Operator
Country
US
Launch date
2025-10-31
Launch site
AFWTR
Launch vehicle
Mass (kg)
RCS (m²)

Purposes: comms

External: N2YO · Heavens-Above · Gunter

§ Orbital elements

Epoch: 2026-09-20T12:05:53.321568Z

Period
93.85 min
Inclination
53.1622°
Eccentricity
0.0001417
Mean motion
15.34392019 rev/d
Perigee alt
461.8 km
Apogee alt
463.7 km
Semi-major
6,840.9 km
B*
2.8790e-4
RAAN
2.0436°
Arg perigee
99.5574°
Mean anomaly
260.5589°
Rev number
5,092

§ Raw data

STARLINK-349101 66269U 25247E   26263.50408937  .00009361  00000+0  28790-3 0  99912 66269  53.1622   2.0436 0001417  99.5574 260.5589 15.34392019 50925

JSON: /api/v1/satellites/66269 · /tle

For live sub-satellite position, see the globe view (requires WebGL).

§ Visibility from observer

Set your observer location to see the next 7 days of passes ≥ 10°. The values pass through the URL so the page stays shareable.

No JS? Fill the form by hand. The geolocation button needs JavaScript.